GW4881 Weather Reports


time (UTC)temp
F
wind
direction
speed
knots
gust
knots
rain 1hr
in
rain 24hr
in
rain mn
in
humidity
%
barometer
mb
20260504070317 89 293 3.5 6.1 0.00 0.00 0.00 57 1014.0
20260504050303 83 301 2.6 5.2 0.00 0.00 0.00 72 1015.0
20260504045803 83 296 1.7 3.5 0.00 0.00 0.00 72 1015.0
20260504045301 83 304 1.7 3.5 0.00 0.00 0.00 71 1015.0
20260504044802 83 283 1.7 4.3 0.00 0.00 0.00 71 1015.0
20260504044301 83 280 1.7 3.5 0.00 0.00 0.00 73 1015.0
20260504043802 83 291 3.5 5.2 0.00 0.00 0.00 73 1015.0
20260504043307 82 288 1.7 3.5 0.00 0.00 0.00 75 1015.0
20260504042801 82 271 1.7 2.6 0.00 0.00 0.00 75 1015.0
20260504042304 82 282 1.7 4.3 0.00 0.00 0.00 74 1015.0
20260504041804 82 312 0.9 2.6 0.00 0.00 0.00 76 1015.0
20260504041302 82 349 1.7 2.6 0.00 0.00 0.00 76 1015.0
20260504040801 82 318 1.7 2.6 0.00 0.00 0.00 78 1015.0
20260504040301 81 325 3.5 5.2 0.00 0.00 0.00 77 1015.0
20260504035802 81 221 1.7 4.3 0.00 0.00 0.00 78 1015.0
20260504035304 81 304 1.7 2.6 0.00 0.00 0.00 80 1015.0
20260504034801 81 285 1.7 3.5 0.00 0.00 0.00 79 1015.0
20260504034301 80 300 3.5 5.2 0.00 0.00 0.00 80 1015.0
20260504033802 80 314 2.6 5.2 0.00 0.00 0.00 81 1015.0
20260504033302 79 298 1.7 3.5 0.00 0.00 0.00 83 1015.0
20260504032803 79 302 5.2 7.8 0.00 0.00 0.00 82 1015.0
20260504032303 79 318 0.9 1.7 0.00 0.00 0.00 83 1015.0
20260504031802 79 307 1.7 3.5 0.00 0.00 0.00 82 1015.0
20260504031303 79 307 2.6 5.2 0.00 0.00 0.00 82 1015.0
20260504030802 79 299 0.9 1.7 0.00 0.00 0.00 82 1015.0
20260504030302 79 302 0.9 2.6 0.00 0.00 0.00 82 1015.0
20260504025801 78 310 2.6 4.3 0.00 0.00 0.00 81 1015.0
20260504025304 78 202 0.9 2.6 0.00 0.00 0.00 80 1015.0
20260504024804 78 319 1.7 2.6 0.00 0.00 0.00 80 1015.0
20260504024302 77 245 1.7 2.6 0.00 0.00 0.00 81 1014.0
20260504023802 77 285 1.7 2.6 0.00 0.00 0.00 82 1014.0
20260504023303 76 211 0.9 1.7 0.00 0.00 0.00 82 1014.0
20260504022802 76 222 0.9 1.7 0.00 0.00 0.00 82 1014.0
20260504022304 75 277 0.9 1.7 0.00 0.00 0.00 83 1014.0
20260504021801 75 184 1.7 3.5 0.00 0.00 0.00 84 1014.0
20260504021301 75 196 1.7 2.6 0.00 0.00 0.00 84 1014.0
20260504020802 74 23 0.9 1.7 0.00 0.00 0.00 86 1014.0
20260504020302 74 283 0.9 1.7 0.00 0.00 0.00 85 1014.0
20260504015801 73 223 1.7 3.5 0.00 0.00 0.00 85 1014.0
20260504015301 73 235 1.7 2.6 0.00 0.00 0.00 86 1014.0
20260504014807 72 234 0.9 2.6 0.00 0.00 0.00 88 1014.0
20260504014301 72 259 0.0 1.7 0.00 0.00 0.00 89 1014.0
20260504013802 72 219 2.6 3.5 0.00 0.00 0.00 90 1014.0
20260504013302 71 272 0.9 1.7 0.00 0.00 0.00 90 1014.0
20260504012802 71 236 1.7 3.5 0.00 0.00 0.00 90 1014.0
20260504012303 72 255 1.7 3.5 0.00 0.00 0.00 90 1014.0
20260504011801 72 245 0.9 1.7 0.00 0.00 0.00 90 1014.0
20260504011301 71 251 1.7 4.3 0.00 0.00 0.00 90 1014.0
20260504010802 71 260 0.9 1.7 0.00 0.00 0.00 90 1014.0
20260504010302 71 302 0.9 1.7 0.00 0.00 0.00 91 1014.0
20260504005801 71 243 0.0 0.9 0.00 0.00 0.00 91 1014.0
20260504005301 71 77 0.0 0.9 0.00 0.00 0.00 91 1014.0
20260504004803 70 256 0.9 2.6 0.00 0.00 0.00 92 1014.0
20260504004301 70 277 0.9 1.7 0.00 0.00 0.00 92 1014.0
20260504003801 70 246 1.7 2.6 0.00 0.00 0.00 93 1014.0
20260504003301 70 202 0.0 0.9 0.00 0.00 0.00 93 1014.0
20260504002802 70 263 1.7 2.6 0.00 0.00 0.00 92 1014.0
20260504002301 70 193 0.0 1.7 0.00 0.00 0.00 92 1014.0
20260504001802 70 56 1.7 1.7 0.00 0.00 0.00 91 1014.0
20260504001302 70 178 0.9 1.7 0.00 0.00 0.00 90 1014.0
20260504000802 70 67 0.9 1.7 0.00 0.00 0.00 89 1014.0
20260504000302 70 69 1.7 5.2 0.00 0.00 0.00 88 1014.0
20260503235801 70 174 0.9 1.7 0.00 0.00 0.00 88 1014.0
20260503235301 70 65 0.9 1.7 0.00 0.00 0.00 89 1014.0
20260503234802 71 294 1.7 2.6 0.00 0.00 0.00 89 1014.0
20260503234302 73 104 3.5 6.1 0.00 0.00 0.00 88 1014.0
20260503233801 76 76 3.5 7.0 0.00 0.00 0.00 83 1014.0
20260503233301 77 27 2.6 7.8 0.00 0.00 0.00 86 1014.0
20260503232801 77 109 0.0 1.7 0.00 0.00 0.00 86 1014.0
20260503232301 77 277 0.0 0.9 0.00 0.00 0.00 86 1013.0
20260503231801 77 229 1.7 3.5 0.00 0.00 0.00 86 1013.0
20260503231302 78 261 0.9 2.6 0.00 0.00 0.00 86 1013.0
20260503230801 78 193 1.7 2.6 0.00 0.00 0.00 86 1013.0
20260503230301 78 267 0.9 1.7 0.00 0.00 0.00 86 1013.0
20260503225802 77 228 0.9 2.6 0.00 0.00 0.00 86 1013.0
20260503225304 77 235 2.6 4.3 0.00 0.00 0.00 85 1013.0
20260503224801 77 233 0.0 0.9 0.00 0.00 0.00 86 1013.0
20260503224301 77 202 0.9 1.7 0.00 0.00 0.00 86 1013.0
20260503223802 77 245 1.7 2.6 0.00 0.00 0.00 86 1013.0
20260503223301 77 256 0.9 1.7 0.00 0.00 0.00 86 1013.0
20260503222802 77 259 0.9 1.7 0.00 0.00 0.00 87 1013.0
20260503222304 77 240 1.7 3.5 0.00 0.00 0.00 86 1013.0
20260503221802 77 248 0.0 1.7 0.00 0.00 0.00 86 1013.0
20260503221301 77 228 0.9 1.7 0.00 0.00 0.00 86 1013.0
20260503220802 77 229 1.7 2.6 0.00 0.00 0.00 86 1013.0
20260503220302 77 37 0.0 0.9 0.00 0.00 0.00 86 1013.0
20260503215802 77 229 0.9 1.7 0.00 0.00 0.00 86 1013.0
20260503215304 77 233 1.7 3.5 0.00 0.00 0.00 86 1012.0
20260503214801 77 263 1.7 2.6 0.00 0.00 0.00 86 1012.0
20260503214302 78 259 1.7 2.6 0.00 0.00 0.00 86 1012.0
20260503213801 78 359 0.0 1.7 0.00 0.00 0.00 86 1012.0
20260503213302 78 113 0.9 1.7 0.00 0.00 0.00 86 1012.0
20260503212802 78 231 1.7 3.5 0.00 0.00 0.00 86 1012.0
20260503212301 78 242 2.6 3.5 0.00 0.00 0.00 86 1012.0
20260503211802 78 258 0.9 2.6 0.00 0.00 0.00 85 1012.0
20260503211301 78 229 1.7 3.5 0.00 0.00 0.00 85 1012.0
20260503210801 78 221 1.7 3.5 0.00 0.00 0.00 85 1012.0
20260503210301 78 241 2.6 4.3 0.00 0.00 0.00 85 1012.0
20260503205801 78 230 1.7 3.5 0.00 0.00 0.00 85 1012.0
20260503205303 78 242 2.6 3.5 0.00 0.00 0.00 84 1012.0
20260503204802 78 235 3.5 6.1 0.00 0.00 0.00 84 1012.0
20260503204302 78 245 2.6 5.2 0.00 0.00 0.00 84 1012.0
20260503203802 79 237 1.7 4.3 0.00 0.00 0.00 84 1012.0
20260503203302 79 225 1.7 4.3 0.00 0.00 0.00 83 1012.0
20260503202806 79 262 2.6 6.1 0.00 0.00 0.00 83 1012.0
20260503202304 79 238 3.5 7.0 0.00 0.00 0.00 83 1012.0
20260503201801 79 256 1.7 3.5 0.00 0.00 0.00 82 1012.0
20260503201302 80 245 1.7 3.5 0.00 0.00 0.00 82 1012.0
20260503200802 80 241 1.7 3.5 0.00 0.00 0.00 82 1013.0
20260503200305 80 219 1.7 3.5 0.00 0.00 0.00 81 1013.0
20260503195802 80 246 1.7 3.5 0.00 0.00 0.00 81 1013.0
20260503195304 80 254 2.6 3.5 0.00 0.00 0.00 80 1013.0
20260503194802 80 239 2.6 5.2 0.00 0.00 0.00 80 1013.0
20260503194301 80 226 2.6 5.2 0.00 0.00 0.00 79 1013.0
20260503193803 80 212 1.7 4.3 0.00 0.00 0.00 79 1013.0
20260503193303 81 241 1.7 4.3 0.00 0.00 0.00 78 1013.0
20260503192802 81 214 2.6 4.3 0.00 0.00 0.00 77 1013.0
20260503192305 81 240 1.7 5.2 0.00 0.00 0.00 77 1013.0
20260503191802 81 226 1.7 6.1 0.00 0.00 0.00 77 1013.0
20260503191302 81 225 1.7 3.5 0.00 0.00 0.00 77 1013.0
20260503190801 81 257 1.7 3.5 0.00 0.00 0.00 76 1013.0
20260503190303 82 230 2.6 4.3 0.00 0.00 0.00 76 1014.0
20260503185802 82 263 1.7 2.6 0.00 0.00 0.00 75 1014.0
20260503185302 82 231 2.6 5.2 0.00 0.00 0.00 75 1014.0
20260503184802 82 236 1.7 2.6 0.00 0.00 0.00 73 1014.0
20260503184301 82 235 1.7 3.5 0.00 0.00 0.00 72 1014.0
20260503183803 82 249 0.0 2.6 0.00 0.00 0.00 68 1014.0
20260503183303 82 228 0.0 0.9 0.00 0.00 0.00 66 1014.0
20260503182804 82 74 0.0 0.9 0.00 0.00 0.00 65 1014.0
20260503182304 82 77 0.0 0.9 0.00 0.00 0.00 65 1014.0
20260503181801 82 160 0.9 1.7 0.00 0.00 0.00 65 1014.0
20260503181303 82 247 1.7 4.3 0.00 0.00 0.00 65 1014.0
20260503180801 82 265 0.9 1.7 0.00 0.00 0.00 65 1014.0
20260503180302 82 250 0.9 3.5 0.00 0.00 0.00 64 1014.0
20260503175801 83 242 2.6 7.0 0.00 0.00 0.00 64 1014.0
20260503175304 83 256 1.7 3.5 0.00 0.00 0.00 62 1014.0
20260503174802 83 79 0.9 1.7 0.00 0.00 0.00 61 1014.0
20260503174302 83 104 0.9 1.7 0.00 0.00 0.00 61 1014.0
20260503173802 83 186 0.9 1.7 0.00 0.00 0.00 60 1014.0
20260503173303 83 70 0.9 3.5 0.00 0.00 0.00 60 1014.0
20260503172802 84 235 1.7 4.3 0.00 0.00 0.00 59 1014.0
20260503172302 84 281 0.9 1.7 0.00 0.00 0.00 59 1014.0
20260503171802 84 288 0.9 1.7 0.00 0.00 0.00 59 1014.0
20260503171301 84 238 0.9 2.6 0.00 0.00 0.00 59 1014.0
20260503170801 84 263 0.9 2.6 0.00 0.00 0.00 59 1014.0
20260503170302 84 188 0.9 1.7 0.00 0.00 0.00 59 1014.0
20260503150802 87 0 0.0 0.0 0.00 0.00 0.00 52 1012.0
20260503150304 87 194 0.0 0.0 0.00 0.00 0.00 52 1012.0
20260503140303 88 157 0.0 0.9 0.00 0.00 0.00 50 1012.0
20260503131305 90 0 0.0 0.0 0.00 0.00 0.00 46 1011.0
20260503130802 90 0 0.0 0.0 0.00 0.00 0.00 46 1011.0
20260503130301 91 321 0.0 1.7 0.00 0.00 0.00 46 1011.0
20260503110801 93 322 1.7 3.5 0.00 0.00 0.00 45 1010.0
20260503110302 93 29 0.9 1.7 0.00 0.00 0.00 44 1010.0
20260503090304 95 346 2.6 6.1 0.00 0.00 0.00 42 1011.0
20260503081301 94 359 2.6 5.2 0.00 0.00 0.00 43 1012.0
20260503080801 94 52 2.6 4.3 0.00 0.00 0.00 42 1012.0
20260503080301 94 6 1.7 3.5 0.00 0.00 0.00 43 1012.0
20260503072803 92 296 1.7 2.6 0.00 0.00 0.00 44 1012.0
20260503072305 92 83 0.9 2.6 0.00 0.00 0.00 45 1012.0
20260503071804 92 342 2.6 4.3 0.00 0.00 0.00 45 1012.0
20260503071302 91 350 0.9 3.5 0.00 0.00 0.00 46 1012.0
20260503070803 91 16 1.7 3.5 0.00 0.00 0.00 46 1013.0